Quillayute, WA
on Tuesday, February 12, 2013

Tuesday
Previous Day Next Day
Daily Summary
 ActualAverageRecord
Temperature
Mean Temperature °F 42°F  
Max Temperature 49°F 49°F 67°F (1996)
Min Temperature 44°F 35°F 23°F (1980)
Degree Days
Heating Degree Days 18 23  
Month to date heating degree days 254 276  
Since 1 July heating degree days 3362 3481  
Cooling Degree Days 0 0  
Month to date cooling degree days 0 0  
Year to date cooling degree days 0 0  
Moisture
Dew Point 43°F   
Average Humidity 87    
Maximum Humidity 92    
Minimum Humidity 82    
Precipitation
Precipitation 0.55 in 0.37 in 2.26 in (1982)
Month to date precipitation 2.69 4.63  
Year to date precipitation 13.03 19.24  
Wind
Wind Speed 4 mph   
Max Wind Speed 14 mph   
Max Gust Speed 20 mph   
Visibility 2 miles   
Events Fog , Rain   

Key: T is trace of precipitation, MM is missing value
Source: NWS Daily Summary
Time(PST)TemperatureDew PointHumidity Pressure Visibility Wind DirectionWind SpeedGust SpeedPrecipitationEvents Conditions
12:08 AM 44.6°F 41.0°F 87% 30.35 in 0.5 miles Calm Calm - N/A Fog Fog
12:41 AM 44.6°F 41.0°F 87% 30.35 in 0.5 miles Calm Calm - N/A Fog Fog
12:53 AM 45.0°F 41.0°F 86% 30.36 in 1.5 miles Calm Calm - N/A   Overcast
1:16 AM 44.6°F 42.8°F 93% 30.35 in 2.5 miles Calm Calm - N/A   Overcast
1:32 AM 44.6°F 41.0°F 87% 30.36 in 2.0 miles Calm Calm - N/A   Overcast
1:45 AM 44.6°F 41.0°F 87% 30.36 in 4.0 miles Calm Calm - N/A   Overcast
1:53 AM 45.0°F 42.1°F 90% 30.36 in 4.0 miles Calm Calm - N/A   Overcast
2:21 AM 44.6°F 42.8°F 93% 30.35 in 2.5 miles Calm Calm - N/A   Overcast
2:30 AM 44.6°F 41.0°F 87% 30.35 in 3.0 miles Calm Calm - N/A   Overcast
2:34 AM 44.6°F 41.0°F 87% 30.35 in 2.5 miles Calm Calm - N/A   Overcast
2:53 AM 45.0°F 42.1°F 90% 30.36 in 4.0 miles Calm Calm - N/A   Overcast
3:11 AM 44.6°F 42.8°F 93% 30.35 in 1.8 miles Calm Calm - 0.00 in Rain Light Rain
3:26 AM 44.6°F 42.8°F 93% 30.34 in 1.2 miles Calm Calm - 0.00 in   Overcast
3:45 AM 44.6°F 42.8°F 93% 30.35 in 0.8 miles Calm Calm - 0.00 in   Mist
3:53 AM 45.0°F 42.1°F 90% 30.35 in 0.8 miles Calm Calm - 0.00 in   Mist
4:32 AM 44.6°F 41.0°F 87% 30.34 in 0.8 miles Calm Calm - 0.01 in   Mist
4:40 AM 44.6°F 42.8°F 93% 30.34 in 1.0 miles Calm Calm - 0.01 in   Mist
4:53 AM 45.0°F 42.1°F 90% 30.35 in 2.0 miles Calm Calm - 0.01 in   Overcast
5:10 AM 44.6°F 42.8°F 93% 30.34 in 1.5 miles Calm Calm - N/A   Overcast
5:20 AM 44.6°F 42.8°F 93% 30.34 in 1.0 miles Calm Calm - N/A   Mist
5:28 AM 44.6°F 42.8°F 93% 30.34 in 1.0 miles Calm Calm - N/A   Mist
5:53 AM 45.0°F 42.1°F 90% 30.35 in 1.8 miles Calm Calm - N/A   Overcast
6:01 AM 44.6°F 42.8°F 93% 30.34 in 2.0 miles Calm Calm - N/A   Overcast
6:12 AM 44.6°F 42.8°F 93% 30.35 in 1.2 miles Calm Calm - N/A   Overcast
6:36 AM 44.6°F 42.8°F 93% 30.36 in 0.8 miles Calm Calm - N/A   Mist
6:53 AM 45.0°F 42.1°F 90% 30.36 in 0.8 miles SE 3.5 mph - 0.01 in   Mist
7:29 AM 44.6°F 42.8°F 93% 30.36 in 1.0 miles SE 3.5 mph - N/A   Mist
7:53 AM 45.0°F 42.1°F 90% 30.37 in 0.8 miles Calm Calm - N/A   Mist
8:06 AM 44.6°F 42.8°F 93% 30.37 in 0.2 miles SSE 3.5 mph - N/A Fog Fog
8:13 AM 44.6°F 42.8°F 93% 30.37 in 0.5 miles SSE 5.8 mph - 0.01 in Fog Fog
8:29 AM 44.6°F 42.8°F 93% 30.37 in 0.2 miles SSE 4.6 mph - 0.01 in Fog Fog
8:47 AM 44.6°F 42.8°F 93% 30.37 in 0.5 miles Calm Calm - 0.02 in Fog Fog
8:48 AM 45.0°F 42.1°F 90% 30.38 in 0.5 miles SSE 3.5 mph - 0.02 in Fog Fog
9:13 AM 46.4°F 42.8°F 87% 30.38 in 0.2 miles Calm Calm - N/A Fog Fog
9:53 AM 46.9°F 43.0°F 86% 30.41 in 0.2 miles SSW 3.5 mph - N/A Fog Fog
9:59 AM 46.4°F 42.8°F 87% 30.40 in 0.5 miles South 4.6 mph - 0.01 in Fog Fog
10:45 AM 46.4°F 44.6°F 93% 30.39 in 0.5 miles South 5.8 mph - 0.03 in Fog , Rain Light Rain
10:53 AM 48.0°F 44.1°F 86% 30.39 in 0.2 miles Calm Calm - 0.04 in Fog , Rain Light Rain
11:07 AM 48.2°F 44.6°F 87% 30.39 in 0.5 miles Calm Calm - 0.01 in Fog Fog
11:35 AM 48.2°F 44.6°F 87% 30.39 in 1.0 miles South 4.6 mph - 0.01 in   Mist
11:46 AM 48.2°F 44.6°F 87% 30.38 in 2.0 miles South 3.5 mph - 0.01 in   Overcast
11:53 AM 48.0°F 44.1°F 86% 30.39 in 4.0 miles South 5.8 mph - 0.01 in   Overcast
11:59 AM 48.2°F 44.6°F 87% 30.37 in 1.8 miles Variable 4.6 mph - N/A   Overcast
12:03 PM 48.2°F 44.6°F 87% 30.38 in 0.8 miles Variable 4.6 mph - N/A   Overcast
12:14 PM 48.2°F 44.6°F 87% 30.37 in 0.5 miles South 4.6 mph - N/A Fog Fog
12:22 PM 48.2°F 44.6°F 87% 30.37 in 0.2 miles South 5.8 mph - N/A Fog Fog
12:46 PM 48.2°F 44.6°F 87% 30.36 in 0.5 miles South 5.8 mph - 0.01 in Fog Fog
12:53 PM 48.0°F 44.1°F 86% 30.36 in 0.2 miles South 6.9 mph - 0.01 in Fog Fog
1:53 PM 48.0°F 44.1°F 86% 30.37 in 0.2 miles SSW 6.9 mph - 0.02 in Fog , Rain Light Rain
2:29 PM 48.2°F 44.6°F 87% 30.35 in 0.5 miles SW 9.2 mph - 0.08 in Fog , Rain Light Rain
2:53 PM 48.9°F 45.0°F 86% 30.36 in 0.5 miles SW 10.4 mph 18.4 mph 0.09 in Fog Fog
3:39 PM 48.2°F 44.6°F 87% 30.34 in 1.5 miles SW 10.4 mph 17.3 mph 0.02 in   Overcast
3:46 PM 48.2°F 46.4°F 93% 30.34 in 3.0 miles SSW 8.1 mph 17.3 mph 0.02 in   Overcast
3:53 PM 48.9°F 45.0°F 86% 30.35 in 4.0 miles SSW 8.1 mph - 0.02 in   Overcast
4:34 PM 48.2°F 44.6°F 87% 30.35 in 1.8 miles SW 8.1 mph 19.6 mph 0.00 in Rain Light Rain
4:42 PM 48.2°F 44.6°F 87% 30.34 in 0.8 miles SW 10.4 mph 18.4 mph 0.00 in Rain Light Rain
4:53 PM 48.9°F 45.0°F 86% 30.34 in 0.5 miles SW 10.4 mph - 0.01 in Fog , Rain Light Rain
5:18 PM 48.2°F 44.6°F 87% 30.33 in 0.8 miles SSW 6.9 mph 16.1 mph 0.04 in Rain Light Rain
5:31 PM 48.2°F 44.6°F 87% 30.33 in 1.0 miles SW 6.9 mph - 0.06 in Rain Rain
5:53 PM 48.0°F 45.0°F 89% 30.33 in 1.0 miles SSW 5.8 mph - 0.12 in Rain Rain
6:11 PM 48.2°F 44.6°F 87% 30.32 in 1.5 miles SSW 9.2 mph - 0.05 in Rain Light Rain
6:25 PM 48.2°F 44.6°F 87% 30.32 in 1.2 miles SW 9.2 mph - 0.08 in Rain Light Rain
6:51 PM 48.2°F 44.6°F 87% 30.33 in 0.8 miles SW 10.4 mph - 0.13 in Rain Rain
6:53 PM 48.9°F 45.0°F 86% 30.33 in 1.0 miles SW 6.9 mph - 0.14 in Rain Light Rain
7:07 PM 48.2°F 44.6°F 87% 30.32 in 1.8 miles SW 9.2 mph - 0.01 in Rain Light Rain
7:25 PM 48.2°F 44.6°F 87% 30.33 in 1.2 miles WSW 13.8 mph 18.4 mph 0.03 in Rain Light Rain
7:43 PM 48.2°F 44.6°F 87% 30.33 in 1.0 miles WSW 12.7 mph - 0.03 in Rain Light Rain
7:53 PM 48.9°F 45.0°F 86% 30.33 in 1.0 miles WSW 9.2 mph - 0.04 in Rain Light Rain
8:04 PM 48.2°F 44.6°F 87% 30.32 in 2.0 miles WSW 10.4 mph 18.4 mph 0.00 in Rain Light Rain
8:12 PM 48.2°F 44.6°F 87% 30.33 in 4.0 miles WSW 11.5 mph 17.3 mph 0.00 in   Overcast
8:35 PM 48.2°F 44.6°F 87% 30.33 in 1.8 miles West 9.2 mph - 0.00 in Rain Light Rain
8:46 PM 48.2°F 44.6°F 87% 30.33 in 3.0 miles West 10.4 mph 18.4 mph 0.00 in   Overcast
8:53 PM 48.0°F 44.1°F 86% 30.34 in 3.0 miles West 8.1 mph 16.1 mph 0.00 in   Overcast
9:13 PM 48.2°F 42.8°F 82% 30.34 in 2.0 miles WNW 8.1 mph - 0.00 in Rain Light Rain
9:25 PM 46.4°F 42.8°F 87% 30.34 in 3.0 miles Variable 3.5 mph - 0.00 in   Overcast
9:35 PM 46.4°F 42.8°F 87% 30.33 in 5.0 miles Calm Calm - 0.00 in   Overcast
9:53 PM 46.9°F 43.0°F 86% 30.34 in 4.0 miles Calm Calm - 0.00 in   Overcast
10:21 PM 46.4°F 42.8°F 87% 30.34 in 2.5 miles South 3.5 mph - 0.00 in Rain Light Rain
10:53 PM 46.0°F 41.0°F 83% 30.35 in 5.0 miles Calm Calm - 0.01 in   Haze
11:24 PM 46.4°F 42.8°F 87% 30.35 in 4.0 miles Calm Calm - N/A   Overcast
11:53 PM 46.0°F 41.0°F 83% 30.36 in 5.0 miles Calm Calm - N/A   Haze
Moon Phase
Feb. 12 Feb. 17 Feb. 25 Mar. 04 Mar. 11
Sunrise:07:28 AM (PST) Moon Rise:08:12 AM (PST)2/12
Sunset:05:36 PM (PST) Moon Set:09:02 PM (PST)2/12

Copyright © 2014 The Weather Underground, Inc.